Tracking 32577 objects as of 15-Dec-2025
HD Live streaming from Space Station
objects crossing your sky now

STARLINK-31332

Track STARLINK-31332 now!
10-day predictions
STARLINK-31332 is classified as:


NORAD ID: 59566
Int'l Code: 2024-076C
Perigee: 488.3 km
Apogee: 491.3 km
Inclination: 43.0 °
Period: 94.3 minutes
Semi major axis: 6860 km
RCS: Unknown
Launch date: April 23, 2024
Source: United States (US)
Launch site: AIR FORCE EASTERN TEST RANGE (AFETR)
Your satellite tracking list
Your tracking list is empty




NASA's NSSDC Master Catalog

Two Line Element Set (TLE):
1 59566U 24076C   25347.69577675 -.00032412  00000-0 -11689-2 0  9994
2 59566  43.0034 134.4228 0002203 201.6403 158.4356 15.27703953 93358
Source of the keplerian elements: AFSPC